Regional Weather Roundup
Issued by NWS Green Bay, WI

Home | Current Version | Previous Version | Text Only | Print | Product List | Glossary On
Versions: 1 2 3 4 5 6 7 8 9 10 11 12 13 14 15 16 17 18 19 20 21 22 23 24 25 26 27 28 29 30 31 32 33 34 35 36 37 38 39 40 41 42 43 44 45 46 47 48 49 50
000
ASUS43 KGRB 282111
RWRGRB

NORTH-CENTRAL AND NORTHEAST WISCONSIN REGIONAL WEATHER ROUNDUP
NATIONAL WEATHER SERVICE GREEN BAY WI
400 PM CDT TUE MAR 28 2017

WIZ005-009-010>012-018-019-282200-
NORTH CENTRAL WISCONSIN

CITY           SKY/WX    TMP DP  RH WIND       PRES   REMARKS
IRONWOOD       SUNNY     56  28  34 N10       30.16S
MANITOWISH WTR SUNNY     56  25  29 SW3       30.14S
ARBOR VITAE    MOSUNNY   57  27  31 CALM      30.13S
EAGLE RIVER    SUNNY     56  23  27 NW6       30.13F
LAND O LAKES   SUNNY     58  23  26 SW6       30.15S
RHINELANDER    SUNNY     59  25  27 VRB3      30.14F
PHILLIPS       SUNNY     58  22  25 CALM      30.13S
ANTIGO         SUNNY     55  30  38 CALM      30.15S
TOMAHAWK       SUNNY     59  23  25 E6        30.14F
MERRILL        SUNNY     58  28  31 S5        30.14F
$$

WIZ013-073-282200-
NORTHEAST WISCONSIN

CITY           SKY/WX    TMP DP  RH WIND       PRES   REMARKS
IRON MOUNTAIN  MOSUNNY   58  27  30 VRB3      30.13S
MARINETTE        N/A    N/A N/A N/A MISG        N/A
OCONTO         SUNNY     44  35  69 SE6       30.19R
$$

WIZ017-030-035>037-045-282200-
CENTRAL WISCONSIN

CITY           SKY/WX    TMP DP  RH WIND       PRES   REMARKS
MEDFORD        SUNNY     55  29  37 CALM      30.14S
WAUSAU         SUNNY     57  27  31 SW5       30.13S
MOSINEE        SUNNY     57  28  33 VRB6      30.15S
MARSHFIELD     SUNNY     55  36  48 E7        30.14S
WISC RAPIDS    SUNNY     60  33  36 E8        30.15F
STEVENS POINT  SUNNY     56  30  36 E3        30.15S
WAUPACA        SUNNY     60  29  30 NE6       30.15F
SHAWANO        SUNNY     57  33  41 NE5       30.16S
CLINTONVILLE   SUNNY     57  30  35 SE6       30.15S
WAUTOMA        SUNNY     58  32  37 E10       30.15S
$$

WIZ038-039-048-051-282200-
FOX VALLEY

CITY           SKY/WX    TMP DP  RH WIND       PRES   REMARKS
NWS GREEN BAY  SUNNY     49  37  63 NE9       30.17F
APPLETON       MOSUNNY   54  27  35 NE9       30.14S
OSHKOSH        SUNNY     51  36  56 NE9       30.16R
FOND DU LAC    SUNNY     54  37  52 N10       30.16R
$$

WIZ022-050-052-282200-
EAST CENTRAL WISCONSIN

CITY           SKY/WX    TMP DP  RH WIND       PRES   REMARKS
EPHRAIM        FAIR      42  37  80 NE3       30.17S
WASHINGTON ISL FAIR      40  34  78 N3        30.18F
STURGEON BAY   SUNNY     46  37  71 E6        30.23R
MANITOWOC      PTSUNNY   41  37  86 NE8       30.19S
SHEBOYGAN      CLOUDY    38  36  92 E10       30.18R
$$

LMZ563-521-522-541>543-282200-
LAKESHORE

STATION/POSITION TIME  TEMP    WIND        PRES    VSBY  WAVE
                       AIR SEA DIR/SP/G                  HT/PER
                 (UTC) (F)     (DEG/KT/KT) (MB)    (MI)  (FT/S)
SHEBOYGAN LKSHOR 2100   34      20/ 13/ 14 1022.7R
KEWAUNEE LKSHORE 2048   37      60/  2/  7 1021.8S
NORTHPORT PIER   2040   34      CALM  /  2 1022.4R
SISTER BAY LKSHO 2021   36     360/ 14/ 15   N/A
CHAMBERS ISLAND  2040   37      CALM  /  2 1021.7S
MENOMINEE LKSHOR 2048   32      90/  2/  3 1021.5R
$$




USA.gov is the U.S. government's official web portal to all federal, state and local government web resources and services.